Flag for Greece Weather past 2 weeks in Peristeri, Greece

Now
50 °F

Passing clouds.


Feels Like: 49 °F
Forecast: 43 / 61 °F
Wind: 3 mph from Northwest

Location: Elefsis Airport

Current Time: Mar 1, 2015 at 9:37:47 PM

Latest Report: Mar 1, 2015 at 8:50 PM


Visibility: N/A

Pressure: 30.01 "Hg

Humidity: 67%

Dew point: 39 °F

Location of PeristeriLocation

Historic Weather in Peristeri — Graph

°F

Peristeri temperature yesterday

Maximum temperature yesterday: 59 °F (at 1:20 PM)
Minimum temperature yesterday: 46 °F (at 3:50 AM)
Average temperature yesterday: 53 °F

Past Weeks' High & Low Weather Summary

 TemperatureHumidityPressure
High64 °F (Feb 25, 2:50 PM)100% (Feb 23, 4:50 AM)30.48 "Hg (Feb 23, 4:50 AM)
Low30 °F (Feb 19, 5:20 AM)19% (Feb 20, 12:20 PM)29.65 "Hg (Feb 24, 3:50 PM)
Average49 °F69%30.02 "Hg
* Reported Feb 14 8:20 PM — Mar 1 8:20 PM, Peristeri, Weather by CustomWeather, © 2015

Note: Actual official high and low records may vary slightly from our data, if they occured in-between our weather recording intervals... More about our weather records

Advertising

Peristeri weather history for previous 24 hours

 ConditionsComfort  
Time TempWeatherWind HumidityBarometerVisibility
8:20 PM
Sun, Mar 1
50 °FPassing clouds.3 mph67%30.04 "HgN/A
7:50 PM52 °FPassing clouds.2 mph67%30.01 "HgN/A
7:20 PM54 °FPassing clouds.5 mph63%30.01 "HgN/A
6:50 PM55 °FPassing clouds.7 mph59%30.01 "HgN/A
6:20 PM57 °FPassing clouds.7 mph55%29.98 "HgN/A
5:50 PM59 °FPartly sunny.12 mph51%29.98 "HgN/A
5:20 PM59 °FPartly sunny.12 mph48%29.95 "HgN/A
4:50 PM59 °FPartly sunny.8 mph48%29.95 "HgN/A
4:20 PM61 °FPassing clouds.8 mph48%29.95 "HgN/A
3:50 PM63 °FPassing clouds.8 mph42%29.95 "HgN/A
3:20 PM63 °FPassing clouds.8 mph42%29.98 "HgN/A
2:50 PM63 °FPassing clouds.9 mph37%29.98 "HgN/A
1:50 PM63 °FPassing clouds.7 mph64%29.98 "HgN/A
1:20 PM63 °FPassing clouds.7 mph39%29.98 "HgN/A
12:50 PM61 °FPassing clouds.7 mph48%29.98 "HgN/A
12:20 PM59 °FPassing clouds.6 mph59%30.01 "HgN/A
11:50 AM59 °FPassing clouds.No wind59%30.01 "HgN/A
11:20 AM59 °FPassing clouds.No wind59%30.01 "HgN/A
10:50 AM59 °FPassing clouds.5 mph63%30.01 "HgN/A
10:20 AM57 °FPassing clouds.No wind67%30.01 "HgN/A
9:50 AM55 °FPassing clouds.No wind72%30.01 "HgN/A
9:20 AM55 °FPassing clouds.No wind77%30.01 "HgN/A
8:50 AM54 °FPassing clouds.No wind82%30.01 "HgN/A
8:20 AM50 °FPassing clouds.No wind88%30.01 "HgN/A
7:50 AM48 °FPassing clouds.No wind94%30.01 "HgN/A
7:20 AM46 °FScattered clouds.No wind93%30.01 "HgN/A
6:50 AM46 °FPassing clouds.3 mph87%30.01 "HgN/A
6:20 AM46 °FPassing clouds.6 mph87%30.01 "HgN/A
5:50 AM46 °FPassing clouds.3 mph87%30.01 "HgN/A
5:20 AM46 °FPassing clouds.3 mph93%30.01 "HgN/A
4:50 AM48 °FPassing clouds.No wind87%29.98 "HgN/A
4:20 AM48 °FPassing clouds.5 mph87%29.98 "HgN/A
3:50 AM48 °FPassing clouds.No wind87%29.98 "HgN/A
3:20 AM50 °FPassing clouds.3 mph82%29.98 "HgN/A
2:50 AM50 °FPassing clouds.No wind82%29.98 "HgN/A
2:20 AM50 °FPassing clouds.3 mph82%30.01 "HgN/A
1:50 AM50 °FPassing clouds.3 mph88%30.01 "HgN/A
1:20 AM50 °FPassing clouds.No wind82%30.01 "HgN/A
12:50 AM50 °FPartly cloudy.No wind82%30.01 "HgN/A
12:20 AM50 °FPartly cloudy.No wind82%30.01 "HgN/A
11:50 PM
Sat, Feb 28
52 °FPartly cloudy.No wind82%30.01 "HgN/A
11:20 PM52 °FPartly cloudy.No wind77%30.01 "HgN/A
10:50 PM52 °FPartly cloudy.No wind77%30.01 "HgN/A
10:20 PM52 °FPartly cloudy.5 mph77%29.98 "HgN/A
9:50 PM54 °FOvercast.No wind72%29.98 "HgN/A
9:20 PM54 °FOvercast.No wind72%29.98 "HgN/A
Weather by CustomWeather, © 2015

See weather overviewHow to use our weather pages